Home > Weather > Tucumán > Past weeks

Flag for Argentina Past Weather in Tucumán, Tucumán, Argentina — Yesterday and Last 2 Weeks

Now
64 °F

Clear.


Feels Like: 64 °F
Forecast: 53 / 72 °F
Wind: 9 mph from West

Location: Tucuman Aerodrome

Current Time: Aug 27, 2016 at 12:09:56 AM

Latest Report: Aug 26, 2016 at 11:00 PM


Visibility: 4 mi

Pressure: 29.77 "Hg

Humidity: 73%

Dew Point: 55 °F

Location of TucumánLocation

Past Weather in Tucumán — Graph

°F

Tucumán Temperature Yesterday

Maximum temperature yesterday: 90 °F (at 3:00 PM)
Minimum temperature yesterday: 55 °F (at 6:00 AM)
Average temperature yesterday: 72 °F

High & Low Weather Summary for the Past Weeks

 TemperatureHumidityPressure
High93 °F (Aug 16, 3:00 PM)88% (Aug 14, 11:00 PM)30.54 "Hg (Aug 14, 11:00 PM)
Low41 °F (Aug 21, 6:00 AM)20% (Aug 17, 2:00 PM)29.53 "Hg (Aug 16, 6:00 PM)
Average64 °F53%29.97 "Hg
* Reported Aug 11 11:00 PM — Aug 26 11:00 PM, Tucumán, Weather by CustomWeather, © 2016

Note: Actual official high and low records may vary slightly from our data, if they occured in-between our weather recording intervals... More about our weather records

Advertising

Tucumán Weather History for the Previous 24 Hours

Scroll right to see more
 ConditionsComfort  
Time TempWeatherWind HumidityBarometerVisibility
11:00 PM
Fri, Aug 26
64 °FClear.9 mph73%29.77 "Hg4 mi
10:00 PM66 °FClear.7 mph68%29.77 "Hg3 mi
9:00 PM72 °FClear.2 mph57%29.71 "Hg2 mi
8:00 PM77 °FClear.3 mph47%29.68 "Hg2 mi
7:00 PM81 °FClear.5 mph39%29.65 "Hg2 mi
6:00 PM84 °FClear.7 mph40%29.62 "Hg2 mi
4:00 PM90 °FClear.7 mph27%29.62 "Hg2 mi
3:00 PM90 °FClear.No wind27%29.62 "Hg2 mi
2:00 PM88 °FClear.6 mph27%29.65 "Hg2 mi
1:00 PM84 °FClear.6 mph33%29.68 "Hg2 mi
12:00 PM82 °FClear.5 mph30%29.68 "Hg2 mi
11:00 AM77 °FClear.3 mph39%29.71 "Hg2 mi
10:00 AM70 °FClear.5 mph50%29.71 "Hg2 mi
9:00 AM61 °FClear.7 mph63%29.71 "Hg2 mi
8:00 AM57 °FClear.7 mph63%29.68 "Hg2 mi
7:00 AM59 °FClear.7 mph59%29.68 "Hg2 mi
6:00 AM55 °FClear.9 mph67%29.65 "Hg2 mi
5:00 AM63 °FClear.5 mph56%29.65 "Hg3 mi
4:00 AM63 °FClear.5 mph56%29.68 "Hg2 mi
3:00 AM66 °FClear.9 mph49%29.68 "Hg3 mi
2:00 AM68 °FClear.9 mph46%29.71 "Hg3 mi
1:00 AM70 °FClear.12 mph43%29.74 "Hg3 mi
12:00 AM66 °FClear.7 mph52%29.77 "Hg3 mi
Weather by CustomWeather, © 2016

See weather overviewHow to use our weather pages